Wind_Speed
18 17 18 18 16 15 15 14 14 15 14 13 12 12 12 12 12 11 12 12 11 10 11 11 10 10 9 9 10 11 12 12 9 9 9 8 7 6 6 7 7 8
17 17 17 17 17 17 16 15 14 15 15 14 13 11 11 12 13 13 14 13 12 12 11 11 11 11 11 10 10 10 11 11 10 9 8 8 8 7 7 7 8 9
19 17 17 17 17 17 16 15 14 15 15 15 15 13 12 12 14 15 15 15 14 13 12 11 11 11 12 11 11 11 10 10 10 9 9 9 9 9 8 7 8 9
21 19 17 17 17 17 16 16 15 16 15 15 16 15 13 13 14 14 15 15 16 15 14 13 12 11 12 12 12 12 11 11 11 10 10 11 11 10 9 9 9 9
21 20 19 18 17 17 17 16 16 17 16 15 15 16 16 15 14 14 14 15 15 16 16 15 14 13 12 13 13 12 12 12 11 11 11 11 11 12 10 9 9 10
21 21 20 20 19 18 18 18 18 17 17 16 16 15 16 17 17 15 15 15 14 14 15 16 15 14 13 13 13 12 12 11 10 11 13 13 11 12 11 10 10 10
19 21 21 21 20 19 19 19 19 19 18 17 17 16 16 17 18 18 16 16 15 14 13 15 16 15 14 13 14 14 13 12 12 13 15 16 13 12 11 11 12 13
18 19 20 21 20 20 20 19 19 19 19 18 18 18 18 18 18 19 18 18 17 16 15 15 16 16 15 15 15 15 16 14 13 14 16 17 15 14 13 12 13 13
18 19 20 20 20 20 20 20 19 19 19 19 19 19 19 20 19 19 19 19 18 18 17 16 16 17 17 16 17 17 18 16 13 13 15 15 16 15 14 13 14 14
17 19 21 20 20 20 20 20 19 19 19 19 19 19 19 20 20 20 19 19 19 19 20 19 18 18 18 18 18 18 19 18 15 15 15 15 15 15 14 13 14 14
16 15 19 21 20 18 19 19 19 19 19 19 19 20 19 18 20 20 20 20 20 20 20 20 20 20 19 19 19 18 18 18 17 17 16 16 17 16 16 16 15 14
16 15 18 20 20 17 17 20 20 19 19 20 19 19 20 19 19 20 20 20 21 20 20 20 20 20 20 20 20 18 17 18 18 18 17 17 17 16 16 16 16 16
15 16 18 19 19 17 17 19 20 18 17 19 20 20 20 19 19 18 18 20 21 21 20 20 19 20 20 21 21 19 19 19 18 18 18 17 17 16 15 14 14 13
14 16 17 18 18 18 17 17 19 20 18 16 18 20 20 19 19 19 18 19 20 20 21 20 20 21 21 21 22 21 21 20 20 19 18 17 17 16 14 13 12 11
16 16 17 17 17 19 20 19 19 19 18 17 17 18 19 18 19 20 18 18 18 19 20 20 20 20 21 21 22 23 23 22 20 19 18 18 18 17 16 14 13 14
15 16 16 17 17 18 19 19 18 17 18 19 18 16 17 18 19 20 19 18 17 16 17 20 21 22 23 22 22 22 23 23 21 19 18 18 18 17 17 16 14 14
11 12 13 14 15 16 16 18 18 18 18 19 18 17 18 18 20 22 23 22 21 18 16 20 23 23 23 22 22 22 22 22 21 19 19 20 20 18 17 18 17 16
10 11 12 13 14 15 16 18 19 19 19 20 22 23 23 21 21 23 25 25 25 22 20 23 25 23 21 20 21 22 23 23 23 22 20 19 18 17 17 19 20 19
14 14 13 13 14 15 16 19 20 20 20 22 24 26 27 27 24 23 24 26 26 25 24 26 25 22 20 20 20 22 23 23 23 23 22 21 19 18 17 17 18 19
14 14 13 14 15 15 16 18 19 18 18 19 21 22 22 24 24 22 23 25 26 26 25 25 25 23 22 21 20 20 21 22 22 23 23 23 22 21 20 18 17 18
13 14 14 14 15 16 16 16 18 18 17 17 18 18 18 20 22 22 23 24 25 25 23 23 25 26 25 24 21 19 19 19 20 20 20 20 20 20 20 19 19 18
12 13 14 13 12 12 12 14 16 16 15 15 16 16 17 19 21 23 25 25 25 25 24 23 25 26 26 26 24 20 18 17 17 17 17 17 17 18 18 18 18 19
5 7 9 11 11 10 9 10 12 12 12 13 14 16 17 19 21 22 25 26 27 27 25 24 25 25 24 23 22 20 19 18 17 17 17 17 17 18 18 18 19 20
4 3 3 5 6 7 7 7 8 9 9 10 12 13 16 18 20 22 24 26 28 28 27 26 26 25 24 22 20 18 18 17 17 18 18 19 19 18 18 18 19 20
8 7 6 5 5 5 5 5 5 5 5 6 8 10 12 15 18 22 23 23 24 23 22 25 27 26 24 23 21 19 18 18 18 20 20 21 20 19 18 18 18 18
9 8 7 6 5 4 3 3 3 4 4 4 5 6 8 10 12 14 11 16 20 17 16 20 24 25 23 22 21 20 20 19 19 19 20 20 19 17 16 15 15 15
Wind_Direction
203 206 199 197 198 196 200 203 201 200 202 206 212 211 200 202 207 200 209 232 241 235 228 223 223 226 228 230 225 219 227 236 235 239 253 260 261 258 260 266 271 274
203 209 207 203 202 201 200 201 202 203 205 203 207 222 220 210 212 207 202 215 235 242 238 231 228 228 229 232 233 231 234 242 244 245 252 264 270 264 258 260 267 276
203 209 213 207 206 207 201 201 207 208 211 208 203 213 223 215 214 218 210 206 215 231 242 243 236 231 232 232 235 237 237 244 248 247 248 252 258 262 263 265 268 276
205 205 212 208 208 212 205 201 210 213 214 216 210 206 210 213 217 226 227 216 210 214 226 244 249 240 234 232 234 238 239 245 249 248 249 251 256 261 261 262 263 264
211 206 208 208 207 212 211 205 210 215 214 216 219 212 207 209 213 222 232 232 226 219 216 227 242 244 241 238 236 237 239 245 252 256 258 255 259 266 266 267 274 276
216 210 207 208 208 210 213 211 212 215 215 214 218 219 215 213 210 211 223 234 238 234 222 221 232 239 241 242 243 242 241 241 245 260 270 267 262 265 264 259 262 269
217 216 212 210 210 211 213 216 216 216 217 217 217 218 220 221 220 215 215 224 233 236 228 222 229 236 235 237 245 249 248 243 235 239 254 260 263 265 261 253 248 248
213 218 218 215 215 215 215 217 218 218 217 218 219 219 219 222 227 226 220 219 223 230 232 228 231 239 236 231 237 247 254 252 243 239 248 256 261 263 263 263 261 257
213 217 218 217 218 219 220 219 219 220 220 219 221 222 223 223 225 227 228 227 224 225 230 230 231 237 238 233 232 238 248 253 245 240 251 263 267 268 269 270 272 273
218 223 221 219 221 222 223 224 223 223 223 222 223 224 225 228 227 226 231 235 232 228 229 228 228 232 235 237 236 235 242 249 246 239 240 251 260 265 267 268 272 275
218 230 231 225 224 225 228 230 228 227 227 225 226 227 226 228 230 229 229 232 234 234 233 231 230 231 232 235 239 239 240 244 248 248 245 245 249 254 258 264 271 273
233 244 243 232 227 232 238 235 228 228 231 230 230 232 229 229 233 234 230 230 232 234 237 237 236 236 235 235 238 240 242 244 247 251 253 253 255 257 258 262 267 270
238 242 244 240 241 247 245 236 234 243 246 238 234 235 235 233 234 236 234 233 233 233 235 237 239 240 240 240 241 239 239 242 245 249 254 257 259 262 263 262 265 271
233 234 240 247 254 254 249 247 253 257 255 247 240 237 236 237 236 235 238 241 241 239 237 236 238 242 243 245 246 244 242 242 243 245 248 253 257 262 264 263 264 265
236 238 243 248 249 247 253 263 264 256 252 256 253 241 233 235 236 234 234 240 246 247 244 242 243 244 244 245 246 246 245 243 243 246 248 250 253 256 257 256 259 260
238 241 243 247 249 250 256 262 260 256 257 261 262 254 241 237 237 236 233 235 242 248 250 248 247 246 242 240 242 247 249 247 244 243 244 246 246 247 247 247 251 257
247 249 247 249 251 253 253 251 250 253 255 254 257 260 255 249 246 242 239 239 241 246 253 254 253 253 248 240 238 243 248 250 249 244 242 244 247 250 251 250 250 254
275 271 267 262 257 253 247 245 249 252 252 251 251 254 259 265 265 256 249 246 245 245 251 252 252 254 253 246 240 240 243 249 253 253 250 248 251 258 262 259 255 253
291 288 284 277 268 261 253 249 251 254 254 254 253 253 257 261 264 263 257 251 249 248 249 252 252 254 256 254 248 244 243 245 251 255 255 255 259 265 268 265 261 256
286 287 285 278 270 265 260 255 253 252 251 252 253 255 255 253 256 262 261 256 253 251 250 253 254 253 253 254 252 248 245 244 248 252 254 257 261 263 265 265 263 261
264 269 272 270 268 268 266 262 259 255 252 253 254 255 257 256 256 258 259 258 256 253 252 254 255 253 252 253 252 249 245 246 248 250 252 258 262 263 264 265 263 264
252 264 272 275 278 282 278 269 264 261 258 257 258 260 261 260 258 258 259 258 257 256 255 254 255 255 254 253 252 248 245 246 251 254 256 260 262 262 260 260 262 266
255 273 281 283 286 293 291 277 268 267 266 263 263 263 264 266 264 261 259 257 257 256 254 252 252 253 252 250 249 248 247 247 250 255 260 261 261 261 261 260 261 263
65 39 357 319 305 304 304 294 284 280 279 278 276 273 273 275 270 262 260 261 260 253 246 246 247 246 247 248 248 247 248 250 253 257 260 262 262 264 267 269 268 266
64 58 46 31 21 11 358 343 335 332 320 306 297 291 293 292 285 276 266 256 253 252 243 240 243 243 242 245 246 247 249 252 255 257 256 257 259 262 266 270 272 272
57 54 52 48 47 46 41 36 35 32 15 346 324 311 315 316 306 298 270 223 222 233 225 220 231 238 241 243 246 248 251 252 254 254 254 255 257 260 262 264 267 271
Height
1551 1552 1553 1554 1555 1556 1557 1558 1559 1560 1561 1563 1563 1564 1566 1567 1568 1569 1570 1570 1570 1571 1572 1573 1574 1574 1575 1576 1577 1578 1578 1579 1580 1580 1581 1581 1582 1583 1583 1584 1585 1585
1550 1551 1552 1553 1554 1555 1556 1557 1559 1560 1561 1562 1563 1564 1565 1566 1567 1568 1569 1569 1569 1570 1570 1571 1572 1573 1574 1575 1576 1577 1577 1578 1579 1579 1580 1580 1581 1581 1582 1583 1583 1584
1549 1550 1551 1552 1553 1554 1556 1557 1558 1559 1560 1561 1562 1564 1564 1565 1566 1566 1567 1568 1569 1569 1570 1570 1571 1572 1573 1573 1574 1575 1576 1577 1577 1578 1579 1579 1580 1580 1581 1582 1582 1583
1548 1550 1550 1552 1553 1554 1555 1556 1558 1558 1559 1560 1561 1562 1564 1564 1565 1565 1566 1567 1568 1569 1569 1569 1570 1570 1571 1572 1573 1574 1575 1575 1576 1577 1577 1578 1578 1579 1580 1580 1581 1582
1547 1549 1550 1551 1553 1553 1554 1555 1557 1557 1558 1559 1560 1561 1562 1563 1564 1564 1565 1565 1566 1567 1568 1568 1569 1569 1570 1570 1571 1572 1573 1574 1574 1575 1576 1576 1577 1577 1578 1579 1579 1580
1546 1547 1549 1550 1552 1553 1553 1554 1555 1556 1557 1558 1559 1560 1561 1562 1563 1564 1564 1564 1564 1565 1566 1567 1568 1568 1569 1569 1570 1571 1571 1572 1573 1574 1574 1574 1575 1576 1576 1577 1578 1578
1546 1546 1548 1549 1550 1551 1552 1553 1554 1555 1556 1557 1558 1559 1560 1560 1561 1562 1563 1564 1564 1564 1565 1566 1567 1567 1568 1568 1568 1569 1570 1571 1572 1573 1572 1572 1573 1574 1574 1575 1576 1576
1546 1546 1547 1548 1549 1550 1551 1552 1553 1553 1554 1556 1556 1557 1558 1559 1560 1560 1561 1562 1563 1564 1564 1565 1566 1566 1567 1567 1568 1568 1568 1569 1570 1571 1571 1571 1571 1572 1573 1573 1574 1574
1546 1546 1546 1547 1548 1549 1550 1550 1552 1552 1553 1554 1555 1556 1557 1557 1558 1559 1559 1560 1561 1563 1563 1564 1565 1565 1566 1566 1567 1567 1567 1567 1568 1569 1569 1570 1570 1570 1571 1572 1572 1572
1545 1546 1546 1546 1547 1548 1549 1549 1551 1551 1552 1553 1554 1555 1555 1556 1557 1557 1558 1559 1559 1560 1561 1562 1564 1564 1565 1565 1566 1566 1566 1566 1566 1567 1568 1568 1569 1569 1570 1570 1571 1571
1543 1544 1545 1545 1545 1547 1548 1549 1550 1551 1551 1551 1552 1553 1554 1555 1555 1556 1557 1557 1558 1559 1560 1560 1562 1563 1563 1564 1564 1565 1565 1565 1565 1566 1566 1567 1567 1568 1568 1569 1569 1570
1542 1544 1545 1544 1543 1544 1545 1546 1547 1549 1551 1551 1551 1551 1552 1553 1554 1554 1555 1556 1557 1558 1558 1559 1560 1561 1562 1562 1563 1564 1564 1565 1565 1565 1565 1565 1566 1566 1566 1567 1567 1568
1540 1543 1544 1544 1544 1543 1544 1545 1546 1547 1548 1550 1551 1551 1551 1552 1552 1553 1553 1554 1555 1556 1557 1558 1558 1559 1560 1561 1561 1562 1563 1564 1564 1564 1564 1564 1564 1564 1565 1565 1565 1566
1539 1542 1542 1543 1543 1543 1544 1545 1546 1547 1546 1546 1548 1550 1550 1551 1551 1552 1553 1553 1553 1554 1555 1556 1557 1558 1559 1559 1560 1561 1562 1562 1563 1563 1563 1563 1563 1563 1564 1564 1564 1564
1537 1539 1540 1540 1541 1541 1542 1543 1544 1545 1545 1545 1546 1547 1549 1549 1549 1550 1551 1552 1552 1553 1554 1554 1555 1556 1556 1557 1558 1558 1559 1560 1560 1561 1562 1562 1562 1562 1562 1562 1563 1562
1535 1536 1537 1538 1538 1538 1539 1539 1540 1541 1543 1545 1547 1546 1547 1548 1548 1549 1550 1551 1551 1551 1552 1552 1552 1552 1553 1554 1555 1556 1556 1557 1557 1558 1559 1559 1559 1559 1559 1560 1561 1561
1533 1534 1534 1535 1536 1537 1537 1537 1538 1539 1540 1541 1544 1545 1545 1546 1547 1548 1549 1550 1550 1550 1550 1549 1549 1550 1551 1552 1553 1553 1554 1555 1555 1556 1556 1556 1555 1556 1557 1558 1558 1558
1530 1531 1532 1533 1533 1534 1536 1536 1537 1538 1538 1539 1540 1541 1543 1544 1545 1546 1547 1548 1549 1549 1548 1546 1547 1549 1549 1550 1551 1551 1552 1553 1553 1553 1553 1554 1554 1554 1555 1556 1556 1556
1528 1529 1530 1531 1531 1532 1534 1534 1535 1536 1537 1538 1538 1539 1540 1541 1543 1544 1546 1546 1547 1547 1545 1544 1546 1547 1547 1548 1549 1550 1550 1551 1551 1551 1551 1552 1553 1553 1553 1553 1553 1554
1527 1527 1527 1528 1529 1529 1531 1532 1533 1534 1535 1536 1537 1538 1538 1538 1540 1542 1544 1544 1544 1545 1544 1543 1543 1544 1545 1546 1547 1548 1548 1548 1549 1549 1549 1550 1551 1551 1551 1551 1551 1552
1525 1525 1525 1526 1526 1527 1528 1529 1530 1531 1532 1533 1534 1535 1536 1536 1537 1539 1540 1541 1541 1542 1543 1541 1541 1541 1543 1544 1544 1545 1546 1546 1547 1547 1546 1547 1548 1548 1549 1549 1550 1550
1524 1524 1524 1524 1525 1526 1526 1527 1528 1529 1530 1531 1531 1531 1532 1533 1533 1534 1534 1536 1538 1539 1539 1538 1538 1539 1540 1541 1542 1542 1543 1544 1544 1545 1545 1545 1545 1546 1546 1547 1548 1548
1523 1523 1524 1524 1524 1525 1525 1526 1526 1527 1528 1528 1529 1529 1530 1530 1530 1530 1530 1532 1534 1535 1535 1535 1536 1536 1537 1538 1539 1540 1540 1541 1542 1542 1542 1542 1543 1543 1543 1544 1544 1545
1523 1523 1524 1524 1524 1524 1525 1524 1524 1525 1525 1525 1526 1527 1528 1528 1528 1527 1527 1528 1530 1531 1532 1532 1533 1533 1534 1535 1535 1537 1538 1538 1539 1539 1540 1540 1540 1541 1541 1541 1541 1542
1523 1523 1523 1524 1524 1524 1524 1524 1524 1524 1524 1524 1525 1525 1525 1525 1524 1524 1524 1525 1526 1528 1529 1529 1530 1530 1531 1532 1532 1534 1535 1535 1536 1537 1537 1537 1538 1539 1539 1538 1538 1539
1523 1524 1524 1524 1524 1524 1524 1524 1524 1524 1524 1524 1524 1524 1524 1524 1523 1523 1522 1521 1521 1524 1525 1526 1526 1527 1528 1529 1530 1531 1531 1532 1533 1534 1534 1535 1535 1536 1537 1536 1536 1536